Year,Month,Day,Hour,Minute,Value (Times are PST for temperature in C)
2011,02,25,00,00,-5.80
2011,02,25,00,01,-5.80
2011,02,25,00,02,-5.80
2011,02,25,00,03,-5.90
2011,02,25,00,04,-5.90
2011,02,25,00,05,-5.90
2011,02,25,00,06,-5.90
2011,02,25,00,07,-5.90
2011,02,25,00,08,-5.90
2011,02,25,00,09,-5.90
2011,02,25,00,10,-5.90
2011,02,25,00,11,-5.90
2011,02,25,00,12,-5.90
2011,02,25,00,13,-5.90
2011,02,25,00,14,-6.00
2011,02,25,00,15,-6.00
2011,02,25,00,16,-6.00
2011,02,25,00,17,-6.10
2011,02,25,00,18,-6.10
2011,02,25,00,19,-6.10
2011,02,25,00,20,-6.20
2011,02,25,00,21,-6.20
2011,02,25,00,22,-6.20
2011,02,25,00,23,-6.20
2011,02,25,00,24,-6.20
2011,02,25,00,25,-6.30
2011,02,25,00,26,-6.30
2011,02,25,00,27,-6.30
2011,02,25,00,28,-6.30
2011,02,25,00,29,-6.20
2011,02,25,00,30,-6.20
2011,02,25,00,31,-6.20
2011,02,25,00,32,-6.20
2011,02,25,00,33,-6.20
2011,02,25,00,34,-6.20
2011,02,25,00,35,-6.20
2011,02,25,00,36,-6.20
2011,02,25,00,37,-6.20
2011,02,25,00,38,-6.20
2011,02,25,00,39,-6.20
2011,02,25,00,40,-6.20
2011,02,25,00,41,-6.20
2011,02,25,00,42,-6.30
2011,02,25,00,43,-6.30
2011,02,25,00,44,-6.30
2011,02,25,00,45,-6.30
2011,02,25,00,46,-6.40
2011,02,25,00,47,-6.40
2011,02,25,00,48,-6.40
2011,02,25,00,49,-6.40
2011,02,25,00,50,-6.40
2011,02,25,00,51,-6.50
2011,02,25,00,52,-6.50
2011,02,25,00,53,-6.50
2011,02,25,00,54,-6.60
2011,02,25,00,55,-6.60
2011,02,25,00,56,-6.60
2011,02,25,00,57,-6.60
2011,02,25,00,58,-6.60
2011,02,25,00,59,-6.70
2011,02,25,01,00,-6.70
2011,02,25,01,01,-6.70
2011,02,25,01,02,-6.70
2011,02,25,01,03,-6.70
2011,02,25,01,04,-6.70
2011,02,25,01,05,-6.70
2011,02,25,01,06,-6.70
2011,02,25,01,07,-6.70
2011,02,25,01,08,-6.70
2011,02,25,01,09,-6.70
2011,02,25,01,10,-6.70
2011,02,25,01,11,-6.70
2011,02,25,01,12,-6.70
2011,02,25,01,13,-6.70
2011,02,25,01,14,-6.70
2011,02,25,01,15,-6.60
2011,02,25,01,16,-6.70
2011,02,25,01,17,-6.70
2011,02,25,01,18,-6.70
2011,02,25,01,19,-6.80
2011,02,25,01,20,-6.80
2011,02,25,01,21,-6.80
2011,02,25,01,22,-6.80
2011,02,25,01,23,-6.80
2011,02,25,01,24,-6.80
2011,02,25,01,25,-6.80
2011,02,25,01,26,-6.80
2011,02,25,01,27,-6.80
2011,02,25,01,28,-6.80
2011,02,25,01,29,-6.90
2011,02,25,01,30,-6.90
2011,02,25,01,31,-7.00
2011,02,25,01,32,-7.00
2011,02,25,01,33,-6.90
2011,02,25,01,34,-6.90
2011,02,25,01,35,-7.00
2011,02,25,01,36,-6.90
2011,02,25,01,37,-7.00
2011,02,25,01,38,-6.90
2011,02,25,01,39,-7.00
2011,02,25,01,40,-6.90
2011,02,25,01,41,-6.90
2011,02,25,01,42,-6.90
2011,02,25,01,43,-6.90
2011,02,25,01,44,-6.90
2011,02,25,01,45,-6.90
2011,02,25,01,46,-6.90
2011,02,25,01,47,-6.90
2011,02,25,01,48,-7.00
2011,02,25,01,49,-7.00
2011,02,25,01,50,-7.00
2011,02,25,01,51,-7.00
2011,02,25,01,52,-7.00
2011,02,25,01,53,-7.00
2011,02,25,01,54,-7.00
2011,02,25,01,55,-7.00
2011,02,25,01,56,-7.00
2011,02,25,01,57,-6.90
2011,02,25,01,58,-6.90
2011,02,25,01,59,-6.90
2011,02,25,02,00,-7.00
2011,02,25,02,01,-7.00
2011,02,25,02,02,-7.00
2011,02,25,02,03,-7.00
2011,02,25,02,04,-7.10
2011,02,25,02,05,-7.10
2011,02,25,02,06,-7.10
2011,02,25,02,07,-7.10
2011,02,25,02,08,-7.20
2011,02,25,02,09,-7.20
2011,02,25,02,10,-7.20
2011,02,25,02,11,-7.20
2011,02,25,02,12,-7.20
2011,02,25,02,13,-7.20
2011,02,25,02,14,-7.20
2011,02,25,02,15,-7.20
2011,02,25,02,16,-7.20
2011,02,25,02,17,-7.20
2011,02,25,02,18,-7.20
2011,02,25,02,19,-7.20
2011,02,25,02,20,-7.20
2011,02,25,02,21,-7.20
2011,02,25,02,22,-7.20
2011,02,25,02,23,-7.20
2011,02,25,02,24,-7.20
2011,02,25,02,25,-7.20
2011,02,25,02,26,-7.20
2011,02,25,02,27,-7.20
2011,02,25,02,28,-7.20
2011,02,25,02,29,-7.30
2011,02,25,02,30,-7.30
2011,02,25,02,31,-7.30
2011,02,25,02,32,-7.30
2011,02,25,02,33,-7.30
2011,02,25,02,34,-7.30
2011,02,25,02,35,-7.30
2011,02,25,02,36,-7.30
2011,02,25,02,37,-7.30
2011,02,25,02,38,-7.30
2011,02,25,02,39,-7.40
2011,02,25,02,40,-7.40
2011,02,25,02,41,-7.40
2011,02,25,02,42,-7.40
2011,02,25,02,43,-7.40
2011,02,25,02,44,-7.50
2011,02,25,02,45,-7.50
2011,02,25,02,46,-7.50
2011,02,25,02,47,-7.50
2011,02,25,02,48,-7.50
2011,02,25,02,49,-7.50
2011,02,25,02,50,-7.50
2011,02,25,02,51,-7.50
2011,02,25,02,52,-7.50
2011,02,25,02,53,-7.50
2011,02,25,02,54,-7.50
2011,02,25,02,55,-7.50
2011,02,25,02,56,-7.60
2011,02,25,02,57,-7.60
2011,02,25,02,58,-7.60
2011,02,25,02,59,-7.60
2011,02,25,03,00,-7.60
2011,02,25,03,01,-7.70
2011,02,25,03,02,-7.70
2011,02,25,03,03,-7.70
2011,02,25,03,04,-7.70
2011,02,25,03,05,-7.70
2011,02,25,03,06,-7.70
2011,02,25,03,07,-7.80
2011,02,25,03,08,-7.80
2011,02,25,03,09,-7.80
2011,02,25,03,10,-7.80
2011,02,25,03,11,-7.80
2011,02,25,03,12,-7.80
2011,02,25,03,13,-7.80
2011,02,25,03,14,-7.80
2011,02,25,03,15,-7.80
2011,02,25,03,16,-7.80
2011,02,25,03,17,-7.80
2011,02,25,03,18,-7.80
2011,02,25,03,19,-7.80
2011,02,25,03,20,-7.80
2011,02,25,03,21,-7.80
2011,02,25,03,22,-7.80
2011,02,25,03,23,-7.80
2011,02,25,03,24,-7.80
2011,02,25,03,25,-7.80
2011,02,25,03,26,-7.80
2011,02,25,03,27,-7.80
2011,02,25,03,28,-7.80
2011,02,25,03,29,-7.80
2011,02,25,03,30,-7.80
2011,02,25,03,31,-7.80
2011,02,25,03,32,-7.80
2011,02,25,03,33,-7.80
2011,02,25,03,34,-7.80
2011,02,25,03,35,-7.80
2011,02,25,03,36,-7.80
2011,02,25,03,37,-7.90
2011,02,25,03,38,-7.90
2011,02,25,03,39,-7.90
2011,02,25,03,40,-7.90
2011,02,25,03,41,-7.90
2011,02,25,03,42,-7.90
2011,02,25,03,43,-7.90
2011,02,25,03,44,-7.90
2011,02,25,03,45,-7.90
2011,02,25,03,46,-7.90
2011,02,25,03,47,-7.90
2011,02,25,03,48,-7.90
2011,02,25,03,49,-7.90
2011,02,25,03,50,-7.90
2011,02,25,03,51,-7.90
2011,02,25,03,52,-7.90
2011,02,25,03,53,-7.90
2011,02,25,03,54,-7.90
2011,02,25,03,55,-7.90
2011,02,25,03,56,-7.90
2011,02,25,03,57,-7.90
2011,02,25,03,58,-8.00
2011,02,25,03,59,-8.00
2011,02,25,04,00,-8.00
2011,02,25,04,01,-8.00
2011,02,25,04,02,-8.00
2011,02,25,04,03,-8.00
2011,02,25,04,04,-8.10
2011,02,25,04,05,-8.10
2011,02,25,04,06,-8.10
2011,02,25,04,07,-8.10
2011,02,25,04,08,-8.10
2011,02,25,04,09,-8.10
2011,02,25,04,10,-8.20
2011,02,25,04,11,-8.20
2011,02,25,04,12,-8.20
2011,02,25,04,13,-8.20
2011,02,25,04,14,-8.30
2011,02,25,04,15,-8.30
2011,02,25,04,16,-8.30
2011,02,25,04,17,-8.30
2011,02,25,04,18,-8.30
2011,02,25,04,19,-8.30
2011,02,25,04,20,-8.30
2011,02,25,04,21,-8.30
2011,02,25,04,22,-8.30
2011,02,25,04,23,-8.30
2011,02,25,04,24,-8.40
2011,02,25,04,25,-8.40
2011,02,25,04,26,-8.40
2011,02,25,04,27,-8.40
2011,02,25,04,28,-8.40
2011,02,25,04,29,-8.40
2011,02,25,04,30,-8.40
2011,02,25,04,31,-8.40
2011,02,25,04,32,-8.30
2011,02,25,04,33,-8.30
2011,02,25,04,34,-8.30
2011,02,25,04,35,-8.30
2011,02,25,04,36,-8.30
2011,02,25,04,37,-8.30
2011,02,25,04,38,-8.30
2011,02,25,04,39,-8.30
2011,02,25,04,40,-8.30
2011,02,25,04,41,-8.30
2011,02,25,04,42,-8.30
2011,02,25,04,43,-8.30
2011,02,25,04,44,-8.40
2011,02,25,04,45,-8.40
2011,02,25,04,46,-8.40
2011,02,25,04,47,-8.40
2011,02,25,04,48,-8.40
2011,02,25,04,49,-8.40
2011,02,25,04,50,-8.40
2011,02,25,04,51,-8.40
2011,02,25,04,52,-8.40
2011,02,25,04,53,-8.40
2011,02,25,04,54,-8.40
2011,02,25,04,55,-8.40
2011,02,25,04,56,-8.40
2011,02,25,04,57,-8.40
2011,02,25,04,58,-8.50
2011,02,25,04,59,-8.50
2011,02,25,05,00,-8.50
2011,02,25,05,01,-8.50
2011,02,25,05,02,-8.50
2011,02,25,05,03,-8.50
2011,02,25,05,04,-8.50
2011,02,25,05,05,-8.50
2011,02,25,05,06,-8.50
2011,02,25,05,07,-8.50
2011,02,25,05,08,-8.50
2011,02,25,05,09,-8.50
2011,02,25,05,10,-8.60
2011,02,25,05,11,-8.60
2011,02,25,05,12,-8.60
2011,02,25,05,13,-8.60
2011,02,25,05,14,-8.60
2011,02,25,05,15,-8.60
2011,02,25,05,16,-8.60
2011,02,25,05,17,-8.60
2011,02,25,05,18,-8.60
2011,02,25,05,19,-8.60
2011,02,25,05,20,-8.70
2011,02,25,05,21,-8.70
2011,02,25,05,22,-8.70
2011,02,25,05,23,-8.70
2011,02,25,05,24,-8.70
2011,02,25,05,25,-8.70
2011,02,25,05,26,-8.70
2011,02,25,05,27,-8.70
2011,02,25,05,28,-8.70
2011,02,25,05,29,-8.70
2011,02,25,05,30,-8.70
2011,02,25,05,31,-8.70
2011,02,25,05,32,-8.70
2011,02,25,05,33,-8.70
2011,02,25,05,34,-8.70
2011,02,25,05,35,-8.70
2011,02,25,05,36,-8.70
2011,02,25,05,37,-8.70
2011,02,25,05,38,-8.70
2011,02,25,05,39,-8.70
2011,02,25,05,40,-8.70
2011,02,25,05,41,-8.70
2011,02,25,05,42,-8.70
2011,02,25,06,33,-9.10
2011,02,25,06,34,-9.10
2011,02,25,06,35,-9.10
2011,02,25,06,36,-9.10
2011,02,25,06,37,-9.10
2011,02,25,06,38,-9.10
2011,02,25,06,39,-9.10
2011,02,25,06,40,-9.10
2011,02,25,06,41,-9.10
2011,02,25,06,42,-9.10
2011,02,25,06,43,-9.10
2011,02,25,06,44,-9.10
2011,02,25,06,45,-9.10
2011,02,25,06,46,-9.10
2011,02,25,06,47,-9.10
2011,02,25,06,48,-9.10
2011,02,25,06,49,-9.20
2011,02,25,06,50,-9.20
2011,02,25,06,51,-9.20
2011,02,25,06,52,-9.20
2011,02,25,06,53,-9.20
2011,02,25,06,54,-9.20
2011,02,25,06,55,-9.20
2011,02,25,06,56,-9.20
2011,02,25,06,57,-9.20
2011,02,25,06,58,-9.20
2011,02,25,06,59,-9.20
2011,02,25,07,00,-9.20
2011,02,25,07,01,-9.20
2011,02,25,07,02,-9.20
2011,02,25,07,03,-9.20
2011,02,25,07,04,-9.20
2011,02,25,07,05,-9.20
2011,02,25,07,06,-9.20
2011,02,25,07,07,-9.20
2011,02,25,07,08,-9.20
2011,02,25,07,09,-9.20
2011,02,25,07,10,-9.20
2011,02,25,07,11,-9.10
2011,02,25,07,12,-9.10
2011,02,25,07,13,-9.10
2011,02,25,07,14,-9.10
2011,02,25,07,15,-9.10
2011,02,25,07,16,-9.10
2011,02,25,07,17,-9.20
2011,02,25,07,18,-9.20
2011,02,25,07,19,-9.20
2011,02,25,07,20,-9.20
2011,02,25,07,21,-9.20
2011,02,25,07,22,-9.20
2011,02,25,07,23,-9.20
2011,02,25,07,24,-9.20
2011,02,25,07,25,-9.30
2011,02,25,07,26,-9.30
2011,02,25,07,27,-9.30
2011,02,25,07,28,-9.30
2011,02,25,07,29,-9.30
2011,02,25,07,30,-9.30
2011,02,25,07,31,-9.30
2011,02,25,07,32,-9.30
2011,02,25,07,33,-9.30
2011,02,25,07,34,-9.30
2011,02,25,07,35,-9.30
2011,02,25,07,36,-9.30
2011,02,25,07,37,-9.30
2011,02,25,07,38,-9.20
2011,02,25,07,39,-9.20
2011,02,25,07,40,-9.20
2011,02,25,07,41,-9.20
2011,02,25,07,42,-9.20
2011,02,25,07,43,-9.20
2011,02,25,07,44,-9.20
2011,02,25,07,45,-9.20
2011,02,25,07,46,-9.20
2011,02,25,07,47,-9.20
2011,02,25,07,48,-9.20
2011,02,25,07,49,-9.20
2011,02,25,07,50,-9.20
2011,02,25,07,51,-9.20
2011,02,25,07,52,-9.20
2011,02,25,07,53,-9.20
2011,02,25,07,54,-9.20
2011,02,25,07,55,-9.20
2011,02,25,07,56,-9.20
2011,02,25,07,57,-9.20
2011,02,25,07,58,-9.20
2011,02,25,07,59,-9.20
2011,02,25,08,00,-9.10
2011,02,25,08,01,-9.10
2011,02,25,08,02,-9.10
2011,02,25,08,03,-9.10
2011,02,25,08,04,-9.00
2011,02,25,08,05,-9.00
2011,02,25,08,06,-9.00
2011,02,25,08,07,-9.00
2011,02,25,08,08,-8.90
2011,02,25,08,09,-8.90
2011,02,25,08,10,-8.80
2011,02,25,08,11,-8.80
2011,02,25,08,12,-8.80
2011,02,25,08,13,-8.70
2011,02,25,08,14,-8.70
2011,02,25,08,15,-8.60
2011,02,25,08,16,-8.50
2011,02,25,08,17,-8.40
2011,02,25,08,18,-8.40
2011,02,25,08,19,-8.30
2011,02,25,08,20,-8.30
2011,02,25,08,21,-8.20
2011,02,25,08,22,-8.20
2011,02,25,08,23,-8.10
2011,02,25,08,24,-8.10
2011,02,25,08,25,-8.00
2011,02,25,08,26,-8.00
2011,02,25,08,27,-7.90
2011,02,25,08,28,-7.90
2011,02,25,08,29,-7.80
2011,02,25,08,30,-7.80
2011,02,25,08,31,-7.70
2011,02,25,08,32,-7.70
2011,02,25,08,33,-7.70
2011,02,25,08,34,-7.70
2011,02,25,08,35,-7.70
2011,02,25,08,36,-7.70
2011,02,25,08,37,-7.60
2011,02,25,08,38,-7.50
2011,02,25,08,39,-7.40
2011,02,25,08,40,-7.40
2011,02,25,08,41,-7.30
2011,02,25,08,42,-7.30
2011,02,25,08,43,-7.20
2011,02,25,08,44,-7.20
2011,02,25,08,45,-7.10
2011,02,25,08,46,-7.00
2011,02,25,08,47,-6.90
2011,02,25,08,48,-6.90
2011,02,25,08,49,-6.80
2011,02,25,08,50,-6.70
2011,02,25,08,51,-6.70
2011,02,25,08,52,-6.60
2011,02,25,08,53,-6.50
2011,02,25,08,54,-6.40
2011,02,25,08,55,-6.30
2011,02,25,08,56,-6.20
2011,02,25,08,57,-6.10
2011,02,25,08,58,-6.10
2011,02,25,08,59,-6.00
2011,02,25,09,00,-6.00
2011,02,25,09,01,-5.90
2011,02,25,09,02,-5.90
2011,02,25,09,03,-5.80
2011,02,25,09,04,-5.70
2011,02,25,09,05,-5.60
2011,02,25,09,06,-5.50
2011,02,25,09,07,-5.40
2011,02,25,09,08,-5.30
2011,02,25,09,09,-5.20
2011,02,25,09,10,-5.20
2011,02,25,09,11,-5.10
2011,02,25,09,12,-5.10
2011,02,25,09,13,-5.10
2011,02,25,09,14,-5.10
2011,02,25,09,15,-5.10
2011,02,25,09,16,-5.10
2011,02,25,09,17,-5.10
2011,02,25,09,18,-5.00
2011,02,25,09,19,-5.00
2011,02,25,09,20,-4.90
2011,02,25,09,21,-4.90
2011,02,25,09,22,-4.90
2011,02,25,09,23,-4.80
2011,02,25,09,24,-4.80
2011,02,25,09,25,-4.70
2011,02,25,09,26,-4.70
2011,02,25,09,27,-4.60
2011,02,25,09,28,-4.50
2011,02,25,09,29,-4.50
2011,02,25,09,30,-4.40
2011,02,25,09,31,-4.40
2011,02,25,09,32,-4.40
2011,02,25,09,33,-4.40
2011,02,25,09,34,-4.40
2011,02,25,09,35,-4.40
2011,02,25,09,36,-4.40
2011,02,25,09,37,-4.40
2011,02,25,09,38,-4.40
2011,02,25,09,39,-4.40
2011,02,25,09,40,-4.40
2011,02,25,09,41,-4.40
2011,02,25,09,42,-4.30
2011,02,25,09,43,-4.30
2011,02,25,09,44,-4.30
2011,02,25,09,45,-4.30
2011,02,25,09,46,-4.20
2011,02,25,09,47,-4.20
2011,02,25,09,48,-4.20
2011,02,25,09,49,-4.10
2011,02,25,09,50,-4.00
2011,02,25,09,51,-4.00
2011,02,25,09,52,-3.90
2011,02,25,09,53,-3.90
2011,02,25,09,54,-3.80
2011,02,25,09,55,-3.80
2011,02,25,09,56,-3.80
2011,02,25,09,57,-3.80
2011,02,25,09,58,-3.80
2011,02,25,09,59,-3.80
2011,02,25,10,00,-3.70
2011,02,25,10,01,-3.60
2011,02,25,10,02,-3.60
2011,02,25,10,03,-3.60
2011,02,25,10,04,-3.50
2011,02,25,10,05,-3.50
2011,02,25,10,06,-3.40
2011,02,25,10,07,-3.40
2011,02,25,10,08,-3.40
2011,02,25,10,09,-3.40
2011,02,25,10,10,-3.30
2011,02,25,10,11,-3.30
2011,02,25,10,12,-3.30
2011,02,25,10,13,-3.30
2011,02,25,10,14,-3.30
2011,02,25,10,15,-3.20
2011,02,25,10,16,-3.20
2011,02,25,10,17,-3.20
2011,02,25,10,18,-3.20
2011,02,25,10,19,-3.10
2011,02,25,10,20,-3.10
2011,02,25,10,21,-3.00
2011,02,25,10,22,-3.00
2011,02,25,10,23,-3.00
2011,02,25,10,24,-2.90
2011,02,25,10,25,-2.80
2011,02,25,10,26,-2.70
2011,02,25,10,27,-2.70
2011,02,25,10,28,-2.60
2011,02,25,10,29,-2.60
2011,02,25,10,30,-2.60
2011,02,25,10,31,-2.50
2011,02,25,10,32,-2.50
2011,02,25,10,33,-2.40
2011,02,25,10,34,-2.40
2011,02,25,10,35,-2.30
2011,02,25,10,36,-2.30
2011,02,25,10,37,-2.20
2011,02,25,10,38,-2.10
2011,02,25,10,39,-2.00
2011,02,25,10,40,-1.90
2011,02,25,10,41,-1.80
2011,02,25,10,42,-1.70
2011,02,25,10,43,-1.60
2011,02,25,10,44,-1.60
2011,02,25,10,45,-1.60
2011,02,25,10,46,-1.60
2011,02,25,10,47,-1.70
2011,02,25,10,48,-1.60
2011,02,25,10,49,-1.60
2011,02,25,10,50,-1.50
2011,02,25,10,51,-1.60
2011,02,25,10,52,-1.60
2011,02,25,10,53,-1.60
2011,02,25,10,54,-1.60
2011,02,25,10,55,-1.50
2011,02,25,10,56,-1.40
2011,02,25,10,57,-1.30
2011,02,25,10,58,-1.20
2011,02,25,10,59,-1.20
2011,02,25,11,00,-1.20
2011,02,25,11,01,-1.10
2011,02,25,11,02,-1.10
2011,02,25,11,03,-1.10
2011,02,25,11,04,-1.10
2011,02,25,11,05,-1.10
2011,02,25,11,06,-1.10
2011,02,25,11,07,-1.10
2011,02,25,11,08,-1.10
2011,02,25,11,09,-1.10
2011,02,25,11,10,-1.10
2011,02,25,11,11,-1.10
2011,02,25,11,12,-1.10
2011,02,25,11,13,-1.10
2011,02,25,11,14,-1.10
2011,02,25,11,15,-1.10
2011,02,25,11,16,-1.00
2011,02,25,11,17,-1.00
2011,02,25,11,18,-0.90
2011,02,25,11,19,-0.90
2011,02,25,11,20,-0.80
2011,02,25,11,21,-0.70
2011,02,25,11,22,-0.70
2011,02,25,11,23,-0.70
2011,02,25,11,24,-0.70
2011,02,25,11,25,-0.80
2011,02,25,11,26,-0.80
2011,02,25,11,27,-0.80
2011,02,25,11,28,-0.80
2011,02,25,11,29,-0.80
2011,02,25,11,30,-0.90
2011,02,25,11,31,-0.90
2011,02,25,11,32,-1.00
2011,02,25,11,33,-1.00
2011,02,25,11,34,-1.00
2011,02,25,11,35,-0.90
2011,02,25,11,36,-0.90
2011,02,25,11,37,-0.80
2011,02,25,11,38,-0.80
2011,02,25,11,39,-0.70
2011,02,25,11,40,-0.70
2011,02,25,11,41,-0.70
2011,02,25,11,42,-0.60
2011,02,25,11,43,-0.60
2011,02,25,11,44,-0.60
2011,02,25,11,45,-0.60
2011,02,25,11,46,-0.50
2011,02,25,11,47,-0.50
2011,02,25,11,48,-0.60
2011,02,25,11,49,-0.60
2011,02,25,11,50,-0.60
2011,02,25,11,51,-0.60
2011,02,25,11,52,-0.50
2011,02,25,11,53,-0.40
2011,02,25,11,54,-0.50
2011,02,25,11,55,-0.60
2011,02,25,11,56,-0.60
2011,02,25,11,57,-0.60
2011,02,25,11,58,-0.60
2011,02,25,11,59,-0.50
2011,02,25,12,00,-0.50
2011,02,25,12,01,-0.50
2011,02,25,12,02,-0.40
2011,02,25,12,03,-0.30
2011,02,25,12,04,-0.30
2011,02,25,12,05,-0.20
2011,02,25,12,06,-0.20
2011,02,25,12,07,-0.10
2011,02,25,12,08,0.00
2011,02,25,12,09,0.00
2011,02,25,12,10,-0.10
2011,02,25,12,11,-0.10
2011,02,25,12,12,-0.10
2011,02,25,12,13,-0.10
2011,02,25,12,14,0.00
2011,02,25,12,15,0.00
2011,02,25,12,16,0.10
2011,02,25,12,17,0.10
2011,02,25,12,18,0.10
2011,02,25,12,19,0.10
2011,02,25,12,20,0.20
2011,02,25,12,21,0.20
2011,02,25,12,22,0.20
2011,02,25,12,23,0.10
2011,02,25,12,24,0.10
2011,02,25,12,25,0.00
2011,02,25,12,26,0.00
2011,02,25,12,27,0.00
2011,02,25,12,28,0.00
2011,02,25,12,29,0.00
2011,02,25,12,30,0.10
2011,02,25,12,31,0.10
2011,02,25,12,32,0.10
2011,02,25,12,33,0.10
2011,02,25,12,34,0.10
2011,02,25,12,35,0.20
2011,02,25,12,36,0.30
2011,02,25,12,37,0.40
2011,02,25,12,38,0.50
2011,02,25,12,39,0.60
2011,02,25,12,40,0.60
2011,02,25,12,41,0.50
2011,02,25,12,42,0.50
2011,02,25,12,43,0.40
2011,02,25,12,44,0.40
2011,02,25,12,45,0.40
2011,02,25,12,46,0.50
2011,02,25,12,47,0.60
2011,02,25,12,48,0.60
2011,02,25,12,49,0.70
2011,02,25,12,50,0.70
2011,02,25,12,51,0.70
2011,02,25,12,52,0.70
2011,02,25,12,53,0.70
2011,02,25,12,54,0.70
2011,02,25,12,55,0.70
2011,02,25,12,56,0.70
2011,02,25,12,57,0.70
2011,02,25,12,58,0.70
2011,02,25,12,59,0.70
2011,02,25,13,00,0.70
2011,02,25,13,01,0.70
2011,02,25,13,02,0.70
2011,02,25,13,03,0.70
2011,02,25,13,04,0.70
2011,02,25,13,05,0.70
2011,02,25,13,06,0.70
2011,02,25,13,07,0.70
2011,02,25,13,08,0.70
2011,02,25,13,09,0.70
2011,02,25,13,10,0.80
2011,02,25,13,11,0.80
2011,02,25,13,12,0.80
2011,02,25,13,13,0.80
2011,02,25,13,14,0.80
2011,02,25,13,15,0.70
2011,02,25,13,16,0.70
2011,02,25,13,17,0.70
2011,02,25,13,18,0.70
2011,02,25,13,19,0.70
2011,02,25,13,20,0.70
2011,02,25,13,21,0.80
2011,02,25,13,22,0.80
2011,02,25,13,23,0.80
2011,02,25,13,24,0.80
2011,02,25,13,25,0.70
2011,02,25,13,26,0.70
2011,02,25,13,27,0.70
2011,02,25,13,28,0.80
2011,02,25,13,29,0.80
2011,02,25,13,30,0.90
2011,02,25,13,31,1.00
2011,02,25,13,32,1.10
2011,02,25,13,33,1.00
2011,02,25,13,34,1.00
2011,02,25,13,35,0.90
2011,02,25,13,36,1.00
2011,02,25,13,37,1.00
2011,02,25,13,38,0.90
2011,02,25,13,39,0.90
2011,02,25,13,40,0.90
2011,02,25,13,41,0.90
2011,02,25,13,42,1.00
2011,02,25,13,43,1.00
2011,02,25,13,44,1.10
2011,02,25,13,45,1.10
2011,02,25,13,46,1.10
2011,02,25,13,47,1.10
2011,02,25,13,48,1.10
2011,02,25,13,49,1.10
2011,02,25,13,50,1.00
2011,02,25,13,51,1.00
2011,02,25,13,52,1.10
2011,02,25,13,53,1.10
2011,02,25,13,54,1.10
2011,02,25,13,55,1.20
2011,02,25,13,56,1.20
2011,02,25,13,57,1.30
2011,02,25,13,58,1.30
2011,02,25,13,59,1.30
2011,02,25,14,00,1.30
2011,02,25,14,01,1.20
2011,02,25,14,02,1.20
2011,02,25,14,03,1.30
2011,02,25,14,04,1.30
2011,02,25,14,05,1.30
2011,02,25,14,06,1.30
2011,02,25,14,07,1.30
2011,02,25,14,08,1.30
2011,02,25,14,09,1.20
2011,02,25,14,10,1.20
2011,02,25,14,11,1.20
2011,02,25,14,12,1.10
2011,02,25,14,13,1.10
2011,02,25,14,14,1.00
2011,02,25,14,15,1.00
2011,02,25,14,16,1.00
2011,02,25,14,17,1.00
2011,02,25,14,18,1.00
2011,02,25,14,19,1.10
2011,02,25,14,20,1.20
2011,02,25,14,21,1.20
2011,02,25,14,22,1.20
2011,02,25,14,23,1.20
2011,02,25,14,24,1.20
2011,02,25,14,25,1.20
2011,02,25,14,26,1.20
2011,02,25,14,27,1.20
2011,02,25,14,28,1.20
2011,02,25,14,29,1.20
2011,02,25,14,30,1.30
2011,02,25,14,31,1.20
2011,02,25,14,32,1.20
2011,02,25,14,33,1.20
2011,02,25,14,34,1.20
2011,02,25,14,35,1.20
2011,02,25,14,36,1.20
2011,02,25,14,37,1.30
2011,02,25,14,38,1.30
2011,02,25,14,39,1.30
2011,02,25,14,40,1.40
2011,02,25,14,41,1.40
2011,02,25,14,42,1.40
2011,02,25,14,43,1.40
2011,02,25,14,44,1.50
2011,02,25,14,45,1.50
2011,02,25,14,46,1.50
2011,02,25,14,47,1.40
2011,02,25,14,48,1.40
2011,02,25,14,49,1.40
2011,02,25,14,50,1.40
2011,02,25,14,51,1.40
2011,02,25,14,52,1.40
2011,02,25,14,53,1.50
2011,02,25,14,54,1.50
2011,02,25,14,55,1.60
2011,02,25,14,56,1.60
2011,02,25,14,57,1.60
2011,02,25,14,58,1.70
2011,02,25,14,59,1.70
2011,02,25,15,00,1.70
2011,02,25,15,01,1.70
2011,02,25,15,02,1.70
2011,02,25,15,03,1.70
2011,02,25,15,04,1.70
2011,02,25,15,05,1.70
2011,02,25,15,06,1.80
2011,02,25,15,07,1.80
2011,02,25,15,08,1.80
2011,02,25,15,09,1.80
2011,02,25,15,10,1.90
2011,02,25,15,11,1.90
2011,02,25,15,12,2.00
2011,02,25,15,13,2.00
2011,02,25,15,14,2.10
2011,02,25,15,15,2.10
2011,02,25,15,16,2.20
2011,02,25,15,17,2.20
2011,02,25,15,18,2.10
2011,02,25,15,19,2.10
2011,02,25,15,20,2.10
2011,02,25,15,21,2.00
2011,02,25,15,22,2.00
2011,02,25,15,23,2.00
2011,02,25,15,24,1.90
2011,02,25,15,25,1.90
2011,02,25,15,26,1.90
2011,02,25,15,27,1.80
2011,02,25,15,28,1.80
2011,02,25,15,29,1.80
2011,02,25,15,30,1.80
2011,02,25,15,31,1.80
2011,02,25,15,32,1.80
2011,02,25,15,33,1.80
2011,02,25,15,34,1.80
2011,02,25,15,35,1.80
2011,02,25,15,36,1.80
2011,02,25,15,37,1.80
2011,02,25,15,38,1.80
2011,02,25,15,39,1.80
2011,02,25,15,40,1.80
2011,02,25,15,41,1.80
2011,02,25,15,42,1.80
2011,02,25,15,43,1.80
2011,02,25,15,44,1.70
2011,02,25,15,45,1.70
2011,02,25,15,46,1.70
2011,02,25,15,47,1.70
2011,02,25,15,48,1.70
2011,02,25,15,49,1.70
2011,02,25,15,50,1.80
2011,02,25,15,51,1.80
2011,02,25,15,52,1.80
2011,02,25,15,53,1.80
2011,02,25,15,54,1.90
2011,02,25,15,55,1.90
2011,02,25,15,56,1.90
2011,02,25,15,57,1.80
2011,02,25,15,58,1.80
2011,02,25,15,59,1.80
2011,02,25,16,00,1.80
2011,02,25,16,01,1.80
2011,02,25,16,02,1.80
2011,02,25,16,03,1.80
2011,02,25,16,04,1.80
2011,02,25,16,05,1.80
2011,02,25,16,06,1.80
2011,02,25,16,07,1.80
2011,02,25,16,08,1.80
2011,02,25,16,09,1.90
2011,02,25,16,10,1.90
2011,02,25,16,11,1.80
2011,02,25,16,12,1.80
2011,02,25,16,13,1.80
2011,02,25,16,14,1.70
2011,02,25,16,15,1.70
2011,02,25,16,16,1.70
2011,02,25,16,17,1.70
2011,02,25,16,18,1.70
2011,02,25,16,19,1.70
2011,02,25,16,20,1.70
2011,02,25,16,21,1.70
2011,02,25,16,22,1.70
2011,02,25,16,23,1.70
2011,02,25,16,24,1.70
2011,02,25,16,25,1.70
2011,02,25,16,26,1.70
2011,02,25,16,27,1.70
2011,02,25,16,28,1.70
2011,02,25,16,29,1.80
2011,02,25,16,30,1.70
2011,02,25,16,31,1.70
2011,02,25,16,32,1.70
2011,02,25,16,33,1.70
2011,02,25,16,34,1.70
2011,02,25,16,35,1.70
2011,02,25,16,36,1.70
2011,02,25,16,37,1.80
2011,02,25,16,38,1.80
2011,02,25,16,39,1.80
2011,02,25,16,40,1.80
2011,02,25,16,41,1.80
2011,02,25,16,42,1.70
2011,02,25,16,43,1.70
2011,02,25,16,44,1.70
2011,02,25,16,45,1.60
2011,02,25,16,46,1.60
2011,02,25,16,47,1.60
2011,02,25,16,48,1.70
2011,02,25,16,49,1.70
2011,02,25,16,50,1.70
2011,02,25,16,51,1.60
2011,02,25,16,52,1.60
2011,02,25,16,53,1.50
2011,02,25,16,54,1.50
2011,02,25,16,55,1.40
2011,02,25,16,56,1.40
2011,02,25,16,57,1.50
2011,02,25,16,58,1.50
2011,02,25,16,59,1.50
2011,02,25,17,00,1.50
2011,02,25,17,01,1.50
2011,02,25,17,02,1.40
2011,02,25,17,03,1.40
2011,02,25,17,04,1.40
2011,02,25,17,05,1.30
2011,02,25,17,06,1.30
2011,02,25,17,07,1.30
2011,02,25,17,08,1.30
2011,02,25,17,09,1.30
2011,02,25,17,10,1.30
2011,02,25,17,11,1.30
2011,02,25,17,12,1.30
2011,02,25,17,13,1.30
2011,02,25,17,14,1.30
2011,02,25,17,15,1.30
2011,02,25,17,16,1.30
2011,02,25,17,17,1.30
2011,02,25,17,18,1.20
2011,02,25,17,19,1.20
2011,02,25,17,20,1.20
2011,02,25,17,21,1.20
2011,02,25,17,22,1.20
2011,02,25,17,23,1.20
2011,02,25,17,24,1.20
2011,02,25,17,25,1.10
2011,02,25,17,26,1.20
2011,02,25,17,27,1.10
2011,02,25,17,28,1.10
2011,02,25,17,29,1.10
2011,02,25,17,30,1.10
2011,02,25,17,31,1.00
2011,02,25,17,32,1.00
2011,02,25,17,33,1.00
2011,02,25,17,34,0.90
2011,02,25,17,35,0.90
2011,02,25,17,36,0.90
2011,02,25,17,37,0.90
2011,02,25,17,38,0.90
2011,02,25,17,39,0.80
2011,02,25,17,40,0.80
2011,02,25,17,41,0.80
2011,02,25,17,42,0.80
2011,02,25,17,43,0.80
2011,02,25,17,44,0.80
2011,02,25,17,45,0.80
2011,02,25,17,46,0.70
2011,02,25,17,47,0.70
2011,02,25,17,48,0.70
2011,02,25,17,49,0.70
2011,02,25,17,50,0.70
2011,02,25,17,51,0.70
2011,02,25,17,52,0.60
2011,02,25,17,53,0.60
2011,02,25,17,54,0.60
2011,02,25,17,55,0.60
2011,02,25,17,56,0.60
2011,02,25,17,57,0.50
2011,02,25,17,58,0.50
2011,02,25,17,59,0.50
2011,02,25,18,00,0.40
2011,02,25,18,01,0.40
2011,02,25,18,02,0.40
2011,02,25,18,03,0.40
2011,02,25,18,04,0.40
2011,02,25,18,05,0.30
2011,02,25,18,06,0.30
2011,02,25,18,07,0.30
2011,02,25,18,08,0.30
2011,02,25,18,09,0.30
2011,02,25,18,10,0.20
2011,02,25,18,11,0.20
2011,02,25,18,12,0.20
2011,02,25,18,13,0.20
2011,02,25,18,14,0.20
2011,02,25,18,15,0.20
2011,02,25,18,16,0.10
2011,02,25,18,17,0.10
2011,02,25,18,18,0.00
2011,02,25,18,19,0.00
2011,02,25,18,20,-0.10
2011,02,25,18,21,-0.20
2011,02,25,18,22,-0.20
2011,02,25,18,23,-0.20
2011,02,25,18,24,-0.30
2011,02,25,18,25,-0.30